• In Latvia
  • List of Countries
  • For 7 days
  • Water Temperature
  • Satellite Maps
  • Weather Map
  • Weather Widgets
  • user-avatar
    Login

    Hourly Weather Biskira

    Today, 19 August, Saturday

    Time Temperature Precipitation Wind Pressure Humidity
    00:00 +35°C° 0 mm 1 mps 752 mmHg 23%
    01:00 +35°C° 0 mm 1 mps 752 mmHg 24%
    02:00 +34°C° 0 mm 1 mps 752 mmHg 25%
    03:00 +34°C° 0 mm 1 mps 752 mmHg 25%
    04:00 +35°C° 0 mm 2 mps 752 mmHg 25%
    05:00 +35°C° 0 mm 2 mps 752 mmHg 25%
    06:00 +35°C° 0 mm 2 mps 752 mmHg 25%
    07:00 +36°C° 0 mm 2 mps 753 mmHg 23%
    08:00 +37°C° 0 mm 3 mps 753 mmHg 21%
    09:00 +38°C° 0 mm 3 mps 753 mmHg 20%
    10:00 +39°C° 0 mm 3 mps 753 mmHg 18%
    11:00 +40°C° 0 mm 3 mps 752 mmHg 17%
    12:00 +42°C° 0 mm 3 mps 752 mmHg 16%
    13:00 +43°C° 0 mm 3 mps 752 mmHg 15%
    14:00 +44°C° 0 mm 3 mps 751 mmHg 14%
    15:00 +44°C° 0 mm 3 mps 751 mmHg 14%
    16:00 +44°C° 0 mm 3 mps 751 mmHg 14%
    17:00 +44°C° 0 mm 3 mps 751 mmHg 14%
    18:00 +43°C° 0 mm 3 mps 751 mmHg 14%
    19:00 +42°C° 0 mm 3 mps 751 mmHg 16%
    20:00 +41°C° 0 mm 2 mps 751 mmHg 17%
    21:00 +40°C° 0 mm 2 mps 752 mmHg 19%
    22:00 +39°C° 0 mm 2 mps 752 mmHg 21%
    23:00 +38°C° 0 mm 2 mps 752 mmHg 23%

    Tomorrow, 20 August, Sunday

    Time Temperature Precipitation Wind Pressure Humidity
    00:00 +38°C° 0 mm 2 mps 752 mmHg 25%
    01:00 +37°C° 0 mm 2 mps 752 mmHg 27%
    02:00 +37°C° 0 mm 3 mps 752 mmHg 28%
    03:00 +36°C° 0 mm 3 mps 752 mmHg 29%
    04:00 +36°C° 0 mm 3 mps 752 mmHg 29%
    05:00 +36°C° 0 mm 3 mps 752 mmHg 30%
    06:00 +36°C° 0 mm 4 mps 752 mmHg 30%
    07:00 +37°C° 0 mm 4 mps 753 mmHg 27%
    08:00 +38°C° 0 mm 4 mps 753 mmHg 24%
    09:00 +41°C° 0 mm 4 mps 753 mmHg 21%
    10:00 +42°C° 0 mm 4 mps 753 mmHg 20%
    11:00 +42°C° 0 mm 4 mps 752 mmHg 18%
    12:00 +43°C° 0 mm 3 mps 752 mmHg 17%
    13:00 +44°C° 0 mm 3 mps 752 mmHg 16%
    14:00 +44°C° 0 mm 3 mps 751 mmHg 16%
    15:00 +44°C° 0 mm 3 mps 751 mmHg 15%
    16:00 +44°C° 0 mm 3 mps 751 mmHg 16%
    17:00 +44°C° 0 mm 3 mps 751 mmHg 16%
    18:00 +43°C° 0 mm 3 mps 751 mmHg 16%
    19:00 +42°C° 0 mm 3 mps 751 mmHg 19%
    20:00 +41°C° 0 mm 4 mps 752 mmHg 22%
    21:00 +40°C° 0 mm 4 mps 752 mmHg 24%
    22:00 +38°C° 0 mm 4 mps 753 mmHg 27%
    23:00 +37°C° 0 mm 4 mps 753 mmHg 29%

    Day after tomorrow, 21 August, Monday

    Time Temperature Precipitation Wind Pressure Humidity
    00:00 +36°C° 0 mm 4 mps 753 mmHg 32%
    01:00 +36°C° 0 mm 4 mps 753 mmHg 33%
    02:00 +35°C° 0 mm 3 mps 752 mmHg 34%
    03:00 +35°C° 0 mm 3 mps 752 mmHg 34%
    04:00 +34°C° 0 mm 3 mps 752 mmHg 35%
    05:00 +34°C° 0 mm 2 mps 753 mmHg 35%
    06:00 +34°C° 0 mm 2 mps 753 mmHg 35%
    07:00 +35°C° 0 mm 2 mps 753 mmHg 33%
    08:00 +36°C° 0 mm 2 mps 753 mmHg 31%
    09:00 +37°C° 0 mm 3 mps 753 mmHg 28%
    10:00 +38°C° 0 mm 3 mps 753 mmHg 26%
    11:00 +39°C° 0 mm 3 mps 752 mmHg 25%
    12:00 +40°C° 0 mm 2 mps 752 mmHg 23%
    13:00 +40°C° 0 mm 3 mps 751 mmHg 21%
    14:00 +42°C° 0 mm 3 mps 751 mmHg 20%
    15:00 +42°C° 0 mm 3 mps 750 mmHg 19%
    16:00 +41°C° 0 mm 2 mps 750 mmHg 19%
    17:00 +41°C° 0 mm 2 mps 751 mmHg 18%
    18:00 +41°C° 0 mm 2 mps 751 mmHg 18%
    19:00 +40°C° 0 mm 3 mps 751 mmHg 19%
    20:00 +39°C° 0 mm 3 mps 751 mmHg 20%
    21:00 +38°C° 0 mm 4 mps 752 mmHg 20%
    22:00 +37°C° 0 mm 4 mps 752 mmHg 21%
    23:00 +36°C° 0 mm 3 mps 752 mmHg 22%

    22 August, Tuesday

    Time Temperature Precipitation Wind Pressure Humidity
    00:00 +36°C° 0 mm 3 mps 752 mmHg 23%
    01:00 +35°C° 0 mm 4 mps 752 mmHg 25%
    02:00 +34°C° 0 mm 4 mps 752 mmHg 28%
    03:00 +33°C° 0 mm 4 mps 752 mmHg 31%
    04:00 +33°C° 0 mm 4 mps 752 mmHg 34%
    05:00 +31°C° 0 mm 3 mps 752 mmHg 38%
    06:00 +31°C° 0 mm 3 mps 753 mmHg 41%
    07:00 +33°C° 0 mm 3 mps 753 mmHg 39%
    08:00 +34°C° 0 mm 3 mps 753 mmHg 37%
    09:00 +35°C° 0 mm 4 mps 753 mmHg 34%
    10:00 +36°C° 0 mm 4 mps 753 mmHg 32%
    11:00 +37°C° 0 mm 4 mps 752 mmHg 30%
    12:00 +38°C° 0 mm 4 mps 752 mmHg 28%
    13:00 +38°C° 0 mm 3 mps 752 mmHg 27%
    14:00 +39°C° 0 mm 3 mps 751 mmHg 25%
    15:00 +39°C° 0 mm 2 mps 751 mmHg 24%
    16:00 +39°C° 0 mm 2 mps 751 mmHg 24%
    17:00 +39°C° 0 mm 2 mps 751 mmHg 24%
    18:00 +39°C° 0 mm 2 mps 751 mmHg 24%
    19:00 +38°C° 0 mm 2 mps 751 mmHg 25%
    20:00 +36°C° 0 mm 1 mps 751 mmHg 26%
    21:00 +36°C° 0 mm 1 mps 752 mmHg 27%
    22:00 +35°C° 0 mm 1 mps 752 mmHg 28%
    23:00 +36°C° 0 mm 2 mps 751 mmHg 29%

    23 August, Wednesday

    Time Temperature Precipitation Wind Pressure Humidity
    00:00 +35°C° 0 mm 2 mps 751 mmHg 30%
    01:00 +34°C° 0 mm 3 mps 751 mmHg 33%
    02:00 +33°C° 0 mm 4 mps 751 mmHg 36%
    03:00 +32°C° 0 mm 5 mps 751 mmHg 39%
    04:00 +32°C° 0 mm 4 mps 752 mmHg 43%
    05:00 +30°C° 0 mm 4 mps 752 mmHg 46%
    06:00 +30°C° 0 mm 4 mps 753 mmHg 50%
    07:00 +32°C° 0 mm 4 mps 753 mmHg 47%
    08:00 +33°C° 0 mm 4 mps 753 mmHg 44%
    09:00 +34°C° 0 mm 4 mps 753 mmHg 41%
    10:00 +35°C° 0 mm 4 mps 753 mmHg 38%
    11:00 +36°C° 0 mm 3 mps 753 mmHg 34%
    12:00 +37°C° 0 mm 3 mps 752 mmHg 31%
    13:00 +38°C° 0 mm 3 mps 752 mmHg 29%
    14:00 +38°C° 0 mm 3 mps 751 mmHg 28%
    15:00 +39°C° 0 mm 2 mps 751 mmHg 26%
    16:00 +39°C° 0 mm 2 mps 751 mmHg 26%
    17:00 +39°C° 0 mm 2 mps 751 mmHg 25%
    18:00 +38°C° 0 mm 2 mps 751 mmHg 25%
    19:00 +38°C° 0 mm 2 mps 751 mmHg 26%
    20:00 +37°C° 0 mm 2 mps 752 mmHg 27%
    21:00 +37°C° 0 mm 2 mps 752 mmHg 28%
    22:00 +36°C° 0 mm 2 mps 752 mmHg 30%
    23:00 +35°C° 0 mm 3 mps 752 mmHg 31%

    24 August, Thursday

    Time Temperature Precipitation Wind Pressure Humidity
    00:00 +35°C° 0 mm 3 mps 752 mmHg 33%
    01:00 +34°C° 0 mm 4 mps 752 mmHg 39%
    02:00 +33°C° 0 mm 4 mps 752 mmHg 46%
    03:00 +32°C° 0 mm 5 mps 752 mmHg 52%
    04:00 +30°C° 0 mm 5 mps 753 mmHg 53%
    05:00 +30°C° 0 mm 4 mps 753 mmHg 54%
    06:00 +30°C° 0 mm 4 mps 753 mmHg 55%
    07:00 +32°C° 0 mm 4 mps 754 mmHg 50%
    08:00 +33°C° 0 mm 4 mps 754 mmHg 46%
    09:00 +34°C° 0 mm 4 mps 754 mmHg 41%
    10:00 +35°C° 0 mm 4 mps 754 mmHg 38%
    11:00 +36°C° 0 mm 4 mps 753 mmHg 35%
    12:00 +37°C° 0 mm 4 mps 753 mmHg 31%
    13:00 +37°C° 0 mm 4 mps 753 mmHg 30%
    14:00 +38°C° 0 mm 3 mps 752 mmHg 28%
    15:00 +38°C° 0 mm 3 mps 752 mmHg 27%
    16:00 +38°C° 0 mm 3 mps 752 mmHg 27%
    17:00 +38°C° 0 mm 3 mps 752 mmHg 27%
    18:00 +38°C° 0 mm 3 mps 751 mmHg 27%
    19:00 +37°C° 0 mm 3 mps 752 mmHg 28%
    20:00 +37°C° 0 mm 3 mps 752 mmHg 29%
    21:00 +36°C° 0 mm 3 mps 753 mmHg 29%
    22:00 +35°C° 0 mm 3 mps 753 mmHg 30%
    23:00 +35°C° 0 mm 3 mps 753 mmHg 32%
    Show more